星链-31773 (STARLINK-31773 )

导读

STARLINK-31773是美国太空探索技术公司SpaceX星链星座的卫星,于北京时间2024年4月7日发射入轨,属于星链低轨互联网星座组网卫星。该卫星运行在近地轨道,为全球提供高速卫星互联网接入服务,尤其支持偏远地区网络覆盖,也是星链第二代组网进程中的组成单元,助力星座完成全球服务布局。

Basic Information
目录编号:
59429
目录名称:
STARLINK-31773
国际标识:
2024-065J
轨道中心:
EARTH
卫星名称:
星链-31773
卫星全名:
星链-31773 (STARLINK-31773 )
卫星状态:
在轨 (已飞行881 天)
发射日期:
2024-04-07 UTC
国别 :
美国 (US)
星等 :
--
Orbit Information
数据来源 国际轨道数据
星历时间: 2026-09-05T12:05:26+0800
11小时前
查看轨道信息
半长轴: 6840.883km
偏心率: 0.0001534
轨道倾角: 53.160°
近地点辐角 101.611°
升交点赤经 169.080°
平近点角 258.506°
近地点: 461.696km
远地点: 463.796km
周期: 93.849分钟
每日圈数: 15.343858
Detailed Information
固有亮度:
5
最大亮度:
1.5
卫星平台:
Starlink v2.0 mini
覆盖范围:
全球
运营商:
太空探索技术公司
运营商所在国:
美国
制造商(研发单位):
太空探索技术公司
制造商所在国:
美国
使用方式:
暂无
Satellite Introduction
星链(Starlink)计划是由太空探索技术公司(SpaceX)提出的一个巨型低轨卫星互联网星座项目,计划在2019年至2024年间在太空搭建由约1.2万颗卫星组成的“星链”网络,其中1584颗将部署在地球上空550千米处的近地轨道,并从2020年开始工作。该卫星仍在工作。
2D Orbit Map
3D Orbit Map
Orbit Altitude Analysis Chart
Orbit Inclination Analysis Chart
Orbit Comprehensive Analysis Chart
View Comprehensive Chart
Conjunction Data List
Event ID Objects TCA Miss Dist (km) Collision Risk Probability Collision Risk Index (CRI) Action
CDM_260907-031105-942906-454021
ARCSTONE (64540)
2026-09-07T
03:11:58+0000
0.149 km
中距离
9.839679E-4 高风险 0.95
CDM_260907-122705-942906-286521
2026-09-07T
12:27:12+0000
0.732 km
远距离
6.488059E-5 中风险 0.71
CDM_260907-035805-942906-454021
ARCSTONE (64540)
2026-09-07T
03:58:53+0000
2.110 km
极远距离
2.459084E-6 低风险 0.43
CDM_260907-140005-942906-286521
2026-09-07T
14:00:59+0000
2.152 km
极远距离
2.096162E-6 低风险 0.41
CDM_260907-160805-249605-942921
2026-09-07T
16:08:22+0000
2.588 km
极远距离
1.425228E-6 低风险 0.38
CDM_260906-094505-846905-942921
2026-09-06T
09:45:54+0000
2.891 km
极远距离
1.401002E-6 低风险 0.38
CDM_260907-105305-942906-286521
2026-09-07T
10:53:24+0000
2.888 km
极远距离
1.242536E-6 低风险 0.37
CDM_260902-235205-253705-942922
2026-09-02T
23:52:10+0000
2.832 km
极远距离
1.234623E-6 低风险 0.37